Location: ?ern� Novina
(50.6762°N, 14.8696°E)
Time: 18:02:39
(UTC+00:00)

FALCON 9 DEB - Pass Details

Date: 03 March 2021
Orbit: 424 x 435 km, 53.0° (Epoch: 13 April)

Event Time Altitude Azimuth Distance (km) Brightness Sun altitude
Rises 18:21:33 0° 290° (WNW) 2,404 8.6 -16.0°
Reaches altitude 10° 18:23:43 10° 283° (WNW) 1,532 7.3 -16.3°
Maximum altitude 18:27:00 43° 211° (SSW) 619 4.0 -16.8°
Enters shadow 18:28:20 28° 159° (SSE) 842 4.3 -17.0°
